Погода в Рогозовке

Россия / Амурская область     50°30′33″N   128°38′30″E
темп.,
°C
ветер,
м/с
пор.,
м/с
влажн.,
%
обл.,
%
осадки,
мм/ч
давл.,
гПа
погр.,
м
21 апреля, ср
ср2100:00+3ююз333815 0.0 101635
03:00+2ююв47461 0.0 101595
06:00+1ююв48517 0.0 1016113
09:00+9ю683521 0.0 1015293
12:00+15ююз79295 0.0 1014929
15:00+19ююз810240 0.0 10121352
18:00+19ю611290 0.0 1012503
21:00+13ююв511420 0.0 1012157
22 апреля, чт
чт2200:00+13ююв616380 0.0 1012265
03:00+11ююв716445 0.0 1012258
06:00+11ююв8174478 0.0 1012292
09:00+16ю91640100 0.0 1011583
12:00+21ююз91330100 0.0 10121258
15:00+24юз9132363 0.0 10112253
18:00+22юз81326100 0.0 1013970
21:00+14с61147100 0.0 1017417
23 апреля, пт
пт2300:00+9ссз6965100 0.0 1021469
03:00+6ссз61063100 0.0 1023554
06:00+4ссз71052100 0.0 1025600
09:00+2с6963100 0.8 1027604
12:00+4ссз6846100 0.2 1028891
15:00+8ссз792999 0.2 10271546
18:00+7ссз71022100 0.0 10271766
21:00+4ссз81426100 0.0 1029704
24 апреля, сб
сб2400:00+1с613360 0.0 1030695
03:00−1ссз512450 0.0 1030368
06:00−1сз411500 0.0 1031351
09:00+4сз69325 0.0 1029988
12:00+9сз811235 0.0 10262355
15:00+11сз91322100 0.0 10233018
18:00+10сз81324100 0.0 10213170
21:00+7ссз713305 0.0 1021952
25 апреля, вс
вс2500:00+5ссз814370 0.0 1021875
03:00+3ссз713495 0.0 1022922
06:00+2ссз612610 0.0 10231009
09:00+5с711333 0.0 10231489
12:00+8ссз692828 0.0 10211864
15:00+11сз572597 0.0 10192220
18:00+11сз46266 0.0 10182061
21:00+7ююз11335 0.0 101810